ONEWEB-0258 (48976 NORAD) Tracking and Keplerian Element Data

This shows tracking and keplerian element data for the satellite.

Feedback or suggestion? Click here.




ElementValue
Catalog48976
NameONEWEB-0258
Epoch Orbit565
Epoch Day211.25001157
Epoch Year2021
RAAN227.4456
Inclination87.4367
Eccentricity0.0008254
Argument of Perigee148.7886
Mean Anonmoly317.4336
Mean Motion14.9500043
Decay Rate-0.01159654
L11 48976U 21060K 21211.25001157 -.01159654 00000-0 -11417+0 0 9997
L22 48976 87.4367 227.4456 0008254 148.7886 317.4336 14.95000430 5651

Live tracking and technical data element details for ONEWEB-0258 (NORAD 48976). ONEWEB-0258 can be tracked NOW for your location showing map with azimuth and elevation plus other details from your city location.

Track the satellite on the map from your city or location and see movement details for azimuth, elevation, latitude, longitude, range, height, and movement on the map or in text.







IsCatalogInMostPopularTable: catalog: 48976, numindb: 3
Update: records affected: 1



GetName: 48976 ONEWEB-0258

Hit Count: updated at: Sat, 31 Jul 2021 15:57:44 GMT